VE2DEW-13 Weather Reports


time (UTC)temp
C
wind
direction
speed
KPH
gust
KPH
rain 1hr
cm
rain 24hr
cm
rain mn
cm
humidity
%
barometer
mb
20260510100020 10 208 8.0 19.3 0.00 0.00 0.00 90 1007.9
20260510094526 10 135 6.4 16.1 0.00 0.00 0.00 90 1007.4
20260510093009 10 205 9.7 19.3 0.00 0.00 0.00 90 1007.4
20260510091513 10 156 8.0 17.7 0.00 0.00 0.00 90 1006.9
20260510090014 10 214 9.7 19.3 0.00 0.00 0.00 90 1007.0
20260510084522 10 155 8.0 17.7 0.00 0.00 0.00 90 1006.9
20260510083034 10 50 3.2 19.3 0.00 0.00 0.00 90 1006.7
20260510081507 10 211 1.6 25.7 0.00 0.00 0.00 89 1006.9
20260510080011 10 165 4.8 14.5 0.00 0.00 0.00 89 1006.9
20260510074516 10 231 4.8 16.1 0.00 0.00 0.00 89 1006.7
20260510073029 10 229 4.8 20.9 0.00 0.00 0.00 88 1006.6
20260510071535 10 201 3.2 19.3 0.00 0.00 0.00 89 1006.5
20260510070022 10 201 4.8 25.7 0.00 0.00 0.00 88 1006.5
20260510064523 10 221 9.7 24.1 0.00 0.00 0.00 89 1006.6
20260510063018 10 345 1.6 12.9 0.00 0.00 0.00 89 1006.2
20260510061524 10 219 3.2 22.5 0.00 0.00 0.00 88 1006.2
20260510060033 10 212 4.8 16.1 0.00 0.00 0.00 87 1006.3
20260510054515 10 230 8.0 25.7 0.00 0.00 0.00 86 1006.5
20260510053015 10 199 6.4 17.7 0.00 0.00 0.00 85 1006.4
20260510051528 10 191 9.7 24.1 0.00 0.00 0.00 85 1006.6
20260510050023 10 209 4.8 22.5 0.00 0.00 0.00 85 1007.0
20260510044529 10 252 4.8 20.9 0.00 0.00 0.00 85 1006.7
20260510043011 10 124 3.2 6.4 0.00 0.00 0.00 86 1006.6
20260510041517 10 332 1.6 11.3 0.00 0.00 0.00 86 1006.3
20260510040019 10 20 1.6 8.0 0.00 0.00 0.00 86 1006.2
20260510034524 10 203 3.2 8.0 0.00 0.00 0.00 87 1006.2
20260510033030 10 48 1.6 9.7 0.00 0.00 0.00 87 1006.2
20260510031528 10 122 3.2 12.9 0.00 0.00 0.00 86 1006.6
20260510030016 10 122 1.6 17.7 0.00 0.00 0.00 86 1006.4
20260510024523 10 209 3.2 16.1 0.00 0.00 0.00 86 1006.7
20260510023023 10 148 4.8 24.1 0.00 0.00 0.00 85 1007.0
20260510021532 10 219 11.3 30.6 0.00 0.00 0.00 84 1007.3
20260510020028 10 149 8.0 27.4 0.00 0.00 0.00 84 1007.2
20260510014522 10 244 6.4 14.5 0.00 0.00 0.00 84 1007.1
20260510013023 10 231 3.2 12.9 0.00 0.00 0.00 85 1007.2
20260510011534 10 295 3.2 16.1 0.00 0.00 0.00 85 1007.3
20260510010011 10 165 3.2 14.5 0.00 0.00 0.00 84 1007.1
20260510004524 10 88 1.6 14.5 0.00 0.00 0.00 84 1007.1
20260510003020 10 146 3.2 8.0 0.00 0.00 0.00 83 1007.2
20260510001506 10 43 1.6 9.7 0.00 0.00 0.00 81 1007.3
20260510000008 11 72 3.2 16.1 0.00 0.00 0.00 80 1007.2
20260509234512 11 251 3.2 12.9 0.00 0.00 0.00 77 1007.2
20260509233017 11 238 4.8 16.1 0.00 0.00 0.00 76 1007.3
20260509231527 11 119 3.2 11.3 0.00 0.00 0.00 74 1007.5
20260509230024 12 153 3.2 14.5 0.00 0.00 0.00 72 1007.4
20260509224506 12 228 3.2 16.1 0.00 0.00 0.00 73 1007.5
20260509223018 12 148 4.8 20.9 0.00 0.00 0.00 70 1007.5
20260509221528 12 180 3.2 17.7 0.00 0.00 0.00 69 1007.4
20260509220022 13 141 4.8 30.6 0.00 0.00 0.00 69 1007.5
20260509214525 13 231 4.8 14.5 0.00 0.00 0.00 68 1007.8
20260509213007 14 37 9.7 17.7 0.00 0.00 0.00 64 1007.6
20260509211511 14 167 6.4 16.1 0.00 0.00 0.00 64 1007.6
20260509210018 15 145 4.8 17.7 0.00 0.00 0.00 61 1007.8
20260509204520 15 120 8.0 22.5 0.00 0.00 0.00 59 1008.0
20260509203024 15 104 4.8 17.7 0.00 0.00 0.00 58 1008.1
20260509201510 15 52 6.4 20.9 0.00 0.00 0.00 57 1008.2
20260509200014 15 222 6.4 24.1 0.00 0.00 0.00 54 1008.3
20260509194520 15 219 9.7 35.4 0.00 0.00 0.00 53 1008.4
20260509193023 15 357 11.3 25.7 0.00 0.00 0.00 55 1008.3
20260509191525 15 153 8.0 32.2 0.00 0.00 0.00 55 1008.5
20260509190015 15 179 6.4 37.0 0.00 0.00 0.00 55 1008.5
20260509184527 15 209 16.1 35.4 0.00 0.00 0.00 53 1008.6
20260509183027 15 205 9.7 27.4 0.00 0.00 0.00 50 1008.7
20260509181523 15 237 11.3 32.2 0.00 0.00 0.00 47 1009.0
20260509180028 15 108 8.0 32.2 0.00 0.00 0.00 48 1009.3
20260509174510 15 212 6.4 29.0 0.00 0.00 0.00 44 1009.6
20260509173017 16 131 11.3 33.8 0.00 0.00 0.00 40 1009.7
20260509171523 16 235 6.4 20.9 0.00 0.00 0.00 38 1009.7
20260509170032 16 238 8.0 17.7 0.00 0.00 0.00 35 1009.9
20260509164527 16 162 8.0 24.1 0.00 0.00 0.00 35 1010.0
20260509163013 15 218 6.4 19.3 0.00 0.00 0.00 38 1010.2
20260509161518 15 93 4.8 16.1 0.00 0.00 0.00 41 1010.4
20260509160005 15 209 3.2 11.3 0.00 0.00 0.00 45 1010.6
20260509154508 15 222 4.8 17.7 0.00 0.00 0.00 41 1010.8
20260509153010 15 310 1.6 17.7 0.00 0.00 0.00 43 1011.1
20260509151515 15 136 4.8 14.5 0.00 0.00 0.00 42 1011.3
20260509150027 14 110 3.2 19.3 0.00 0.00 0.00 44 1011.3
20260509144506 13 68 4.8 16.1 0.00 0.00 0.00 45 1011.4
20260509143012 13 39 3.2 12.9 0.00 0.00 0.00 46 1011.6
20260509141519 12 89 4.8 19.3 0.00 0.00 0.00 49 1011.6
20260509140026 12 132 3.2 12.9 0.00 0.00 0.00 51 1011.7
20260509134525 12 274 4.8 14.5 0.00 0.00 0.00 52 1011.6
20260509133006 11 96 3.2 14.5 0.00 0.00 0.00 53 1011.8
20260509131509 11 245 6.4 19.3 0.00 0.00 0.00 55 1012.0
20260509130010 10 198 4.8 17.7 0.00 0.00 0.00 55 1012.0
20260509124527 10 43 1.6 12.9 0.00 0.00 0.00 58 1012.2
20260509123029 10 240 3.2 14.5 0.00 0.00 0.00 58 1012.2
20260509121505 10 204 3.2 14.5 0.00 0.00 0.00 58 1012.3
20260509120008 9 41 1.6 16.1 0.00 0.00 0.00 60 1012.1
20260509114514 8 106 3.2 12.9 0.00 0.03 0.00 64 1012.3
20260509113020 8 271 1.6 8.0 0.00 0.03 0.00 65 1012.3
20260509111522 7 44 1.6 8.0 0.00 0.03 0.00 67 1012.2
20260509110017 7 116 1.6 8.0 0.00 0.03 0.00 67 1012.2
20260509104513 6 210 1.6 12.9 0.00 0.03 0.00 70 1012.2
20260509103012 6 222 1.6 8.0 0.00 0.03 0.00 72 1012.0
20260509101523 5 68 0.0 6.4 0.00 0.03 0.00 74 1011.8